Regional Weather Roundup
Issued by NWS Boston, MA

Current Version | Previous Version | Text Only | Print | Product List | Glossary On
Versions: 1 2 3 4 5 6 7 8 9 10 11 12 13 14 15 16 17 18 19 20 21 22 23 24 25 26 27 28 29 30 31 32 33 34 35 36 37 38 39 40 41 42 43 44 45 46 47 48 49 50
000 ASUS41 KBOX 271110 RWRBOX REGIONAL WEATHER ROUNDUP NATIONAL WEATHER SERVICE TAUNTON MA 600 AM EST THU NOV 27 2014 NOTE: "FAIR" INDICATES FEW OR NO CLOUDS BELOW 12,000 FEET WITH NO SIGNIFICANT WEATHER AND/OR OBSTRUCTIONS TO VISIBILITY. THE FOLLOWING OBSERVATION LOCATIONS DO NOT REPORT PRESENT WEATHER...PROVINCETOWN... SMITHFIELD...BLOCK ISLAND...KEENE...AND OXFORD. MAZALL-271200- EASTERN MASSACHUSETTS CITY SKY/WX TMP DP RH WIND PRES REMARKS BOSTON MOCLDY 34 31 88 NW12 29.83R WCI 25 BEVERLY CLOUDY 33 30 88 NW10 29.80R WCI 25 LAWRENCE MOCLDY 32 30 92 NW8 29.84R WCI 25 BEDFORD MOCLDY 31 30 96 W5 29.83R WCI 26 BLUE HILL NOT AVBL NORWOOD MOCLDY 33 31 92 NW3 29.83R MARSHFIELD CLOUDY N/A N/A N/A NW9G23 29.82R PLYMOUTH CLOUDY 34 32 92 NW7 29.81R WCI 28 TAUNTON CLEAR 33 31 92 NW3 29.82R NEW BEDFORD CLEAR 33 31 92 NW6 29.81R WCI 28 $$ MAZALL-271200- CAPE COD AND THE ISLANDS CITY SKY/WX TMP DP RH WIND PRES REMARKS FALMOUTH CLOUDY 32 32 100 NW9G18 29.80R WCI 24 HYANNIS LGT RAIN 37 33 85 N17G28 29.76R WCI 27 CHATHAM CLOUDY 37 34 89 NW8G21 29.77R WCI 31 PROVINCETOWN CLOUDY 43 34 70 N20G33 29.79R NANTUCKET CLOUDY 38 35 89 NW17G26 29.77R WCI 28 MARTHAS VNYRD CLOUDY 35 31 85 N15 29.80R WCI 25 $$ MAZALL-271200- CENTRAL AND WESTERN MASSACHUSETTS CITY SKY/WX TMP DP RH WIND PRES REMARKS WORCESTER MOCLDY 29 27 92 NW12 29.81R WCI 19 FITCHBURG MOCLDY 32 28 85 NW6 29.83R WCI 26 ORANGE N/A N/A N/A N/A MISG 29.85R SPRINGFIELD CLOUDY 31 29 92 N5 29.86R WCI 26 WESTFIELD MOCLDY 32 27 81 NW5 29.87R WCI 27 NORTH ADAMS CLOUDY 28 25 88 W8 29.90R WCI 20 PITTSFIELD CLOUDY 26 23 88 VRB5 29.85S WCI 20 $$ RIZALL-271200- RHODE ISLAND CITY SKY/WX TMP DP RH WIND PRES REMARKS PROVIDENCE PTCLDY 34 29 82 NW9 29.84R WCI 27 NEWPORT CLEAR 35 30 82 NW12 29.83R WCI 27 BLOCK ISLAND PTCLDY 36 28 75 NW8G16 29.85R WCI 29 SMITHFIELD PTCLDY 30 23 74 NW8 29.82R WCI 23 WESTERLY CLEAR 32 30 92 W3 29.87R $$ CTZALL-271200- CONNECTICUT CITY SKY/WX TMP DP RH WIND PRES REMARKS BRADLEY INTL PTCLDY 33 27 78 W6 29.88R WCI 28 HARTFORD CLOUDY 34 29 82 SW6 29.89R WCI 29 BRIDGEPORT CLOUDY 35 29 78 NW8 29.92R WCI 29 DANBURY CLOUDY 32 24 72 NW8 29.93R WCI 25 GROTON CLEAR 32 31 96 NW7 29.88R WCI 26 NEW HAVEN CLOUDY 37 29 72 NW7 29.90R WCI 32 CHESTER CLOUDY 34 32 93 NW6 29.87R WCI 29 MERIDEN PTCLDY 33 27 78 NW6 29.89R WCI 28 WILLIMANTIC CLOUDY 34 29 82 VRB7 29.87R WCI 28 OXFORD MOCLDY 30 27 86 NW5 29.89R WCI 25 $$ MEZ002-015-021-024-NHZ003-005-008-011-012-014-VTZ005-008-271200- NORTHERN NEW ENGLAND CITY SKY/WX TMP DP RH WIND PRES REMARKS PORTLAND ME MOCLDY 32 27 81 NW14G23 29.81R WCI 22 BANGOR ME SNOW 27 25 92 N22G32 29.72R VSB 1/2 WCI 13 CONCORD NH N/A 29 27 92 NW8 29.83R WCI 21 MANCHESTER NH CLOUDY 31 28 89 NW7 29.81S WCI 24 NASHUA NH MOCLDY 30 29 96 CALM 29.84R PORTSMOUTH NH MOCLDY 32 29 87 NW8 29.80R WCI 25 JAFFREY NH N/A 29 26 89 N3 29.81R KEENE NH N/A N/A N/A N/A MISG N/A BURLINGTON VT CLOUDY 27 22 81 N9 29.97R WCI 18 MT. WASHINGTON SNOW 14 14 100 N37 N/A VSB 1/16WCI -9 $$ NYZ052-076-271200- EASTERN NEW YORK CITY SKY/WX TMP DP RH WIND PRES REMARKS ALBANY CLOUDY 30 27 88 N6 29.95S WCI 24 NEW YORK CITY CLOUDY 37 30 75 NW9 29.95R WCI 30 $$ ANZALL-271200- MARINE OBSERVATIONS STATION/POSITION TIME TEMP WIND PRES VSBY WAVE AIR SEA DIR/SP/G HT/PER (UTC) (F) (DEG/KT/KT) (MB) (MI) (FT/S) BOSTON BUOY 1050 37 49 340/ 19/ 23 1008.8R 12/10 BUZZARDS BAY 1000 330/ 20/ 22 1009.7R NANTUCKET SOUND 1050 39 47 330/ 21/ 27 1007.5R 4/ 4 MASS BAY-STELLWA 1004 38 50 330/ 23/ 27 N/A 1 7/8 ISLE OF SHOALS 1100 35 350/ 21/ 25 1008.5R S OF BLOCK IS 1008 56 N/A 10/12 $$ ......................KEY......................... SKY/WX - SKY CONDITION/PRESENT WEATHER TMP - TEMPERATURE IN FAHRENHEIT DWPT - DEWPOINT IN FAHRENHEIT RH - RELATIVE HUMIDITY IN PERCENT WIND - DIRECTION AND SPEED IN MPH PRES - MEAN SEA LEVEL PRESSURE IN INCHES OF HG WCI - WIND CHILL INDEX VSB - VISIBILITY IN MILES HX - HEAT INDEX TC - TEMPERATURE IN CELSIUS VRB - VARIABLE WIND DIRECTION N/A - NOT AVAILABLE

USA.gov is the U.S. government's official web portal to all federal, state and local government web resources and services.